Погода в Томске

Погода в Томске : погода сейчас, прогноз погоды и архив. Всё, что Вы хотите узнать о погоде в Томске!

Хотите узнать прогноз погоды в Томске? Тогда Вам сюда: Погода в Томске

Поиск расширенной информации на нашем сайте:

Другие новости

Новости СМИ2

Главная страница сайта

Новости сайта

03.07.2017

Напоминаем, что на нашем специализированном сайте Метеоцентр.Азия вы можете получить высокодетализированные автоматические прогнозы погоды по пунктам России, СНГ и мира в авиационном формате (включающие направление и скорость ветра, видимость, явления погоды, количество и форму облачности, нижнюю и верхнюю границу облачности).


Погода в Томске - сегодня

Время (UTC), дата Ветер
(°,м/с) 
Видим.   Явления Облачность Т
(°С)
Тd
(°С)
f(%) Тe
(°С)
Pmin
(гПа)
dP
(гПа)
Po
(мм)
O2
(г/м3)
Тmin Tmax R s Состояние
почвы
21 17.08.18 тихо ()   20000 м    ясно 
+12.4 +11.6 95 +16  1007.4  743  284           
00 18.08.18 тихо ()   20000 м    1/0 средняя 
[Ac trans]
+11.8 +11.1 95 +15  1008.1  0.6  744  285  +11        сухая 
03 18.08.18 тихо ()   20000 м    1/0 средняя 
[Ac trans]
+19.8 +13.9 69 +27  1008.2  0.5  744  277           
06 18.08.18 280 (З) 20000 м    5/5 1000 м 
[Cu hum]
+24.9 +13.9 50 +32  1007.9  744  272           
09 18.08.18 280 (З) 20000 м    5/0 средняя 
[Ac trans]
+25.9 +12.2 43 +30  1008  0.2  744  272           
12 18.08.18 250 (З) 20000 м    3/0 верхняя 
[Ci fib]
+24 +15.6 59 +34  1007.7  -0.4  744  272    +26.4       
15 18.08.18 тихо ()   20000 м    3/0 верхняя 
[Ci fib]
+17.2 +15.7 91 +27  1008.5  0.4  744  279           
18 18.08.18 тихо ()   20000 м    ясно 
+16 +15 94 +25  1008.5  744  280           
21 18.08.18 тихо ()   20000 м    ясно 
+15 +14.2 95 +23  1009  0.4  744  281           
00 19.08.18 тихо ()   20000 м  дымка  ясно 
+14.3 +13.6 96 +21  1009.2  0.1  745  282  +14.1        сухая 
03 19.08.18 190 (Ю) 20000 м    ясно 
+20 +15.4 75 +30  1009.4  0.6  745  276           
06 19.08.18 260 (З) 20000 м    3/3 1000 м 
[Cu hum]
+24.2 +13.3 51 +30  1008.8  -0.4  745  273           
09 19.08.18 240 (ЮЗ) 20000 м    ясно 
+26 +11 39 +29  1008.3  -0.4  744  272           
12 19.08.18 320 (СЗ) 20000 м    ясно 
+23.1 +8.8 40 +23  1008.9  0.4  745  275    +26.3       
15 19.08.18 010 (С) 20000 м    ясно 
+17.3 +10.6 65 +21  1009.9  0.6  745  280           
18 19.08.18 020 (С) 20000 м    ясно 
+15.9 +10.4 70 +19  1010.3  0.4  745  282           
21 19.08.18 020 (С) 20000 м    ясно 
+13.6 +9.5 76 +16  1010.3  -0.2  745  284           
00 20.08.18 010 (С) 20000 м    ясно 
+13 +9.4 79 +15  1010.9  0.6  746  285  +12.5        сухая 
03 20.08.18 010 (С) 20000 м    3/0 верхняя 
[Ci fib]
+19.5 +11.3 59 +24  1009.8  -0.7  745  278           
06 20.08.18 010 (С) 20000 м    3/0 верхняя 
[Ci fib]
+22.6 +11.5 49 +26  1008.8  -0.8  745  275           
09 20.08.18 010 (С) 20000 м    3/0 верхняя 
[Ci fib]
+24.5 +11.7 45 +28  1007.8  -0.8  744  273           
12 20.08.18 020 (С) 20000 м    ясно 
+22.4 +11.9 51 +26  1007.5  -0.5  744  275    +24.8       
15 20.08.18 030 (СВ) 20000 м    3/0 верхняя 
[Ci fib]
+18.6 +11.7 64 +24  1007  -0.7  743  278           
18 20.08.18 040 (СВ) 20000 м    3/0 верхняя 
[Ci fib]
+17.3 +11.5 69 +21  1005.6  -1.4  742  279           
21 20.08.18 040 (СВ) 20000 м    3/0 верхняя 
[Ci fib]
+16.5 +11.8 74 +21  1003.8  -1.8  741  279           
Время (UTC), дата Ветер
(°,м/с) 
Видим.   Явления Облачность Т
(°С)
Тd
(°С)
f(%) Тe
(°С)
Pmin
(гПа)
dP
(гПа)
Po
(мм)
O2
(г/м3)
Тmin Tmax R s Состояние
почвы

Для получения пояснительной информации подведите курсор к названию столбца.

ПОГОДА в Томске - архив

Всё, что Вы хотите узнать о погоде в Томске - удобно и подробно!

Выберите нужную дату (начиная с 1 января 2015* года) и нажмите кнопку "Найти".
Будут отображены архивные сводки погоды по пункту Томск, начиная с указанной даты.


Отображать данные в формате CSV (для использования в таблицах Excel)


Внимание! Наш архив погоды предназначен исключительно для личного некоммерческого использования в познавательных целях. Если Вам необходимы официальные справки о состоянии погоды (для производственных, юридических, коммерческих и т.п. целей), обращайтесь в органы Росгидромета.

*Примечание: данная дата относится к архиву по метеостанциям СССР (Россия, СНГ, Балтия).
Архив по метеостанциям Зарубежной Европы и Азии (кроме Китая) хранится 10 дней, по другим регионам земного шара (Китай, Африка, Америка, Австралия, Океания) - 1 день.

Томск - район местоположения метеостанции


Название, широта, долгота, высота метеостанции:
Томск 56.5°ш. 84.9°д. 139 м над ур. моря [Российская Федерация]

Дополнительная информация

В oтличие oт бoльшинства пoгoдных сайтoв мы публикуем пoдрoбную метеoинфoрмацию в детальнoм прoфессиoнальнoм фoрмате.

Характеристики температуры и влажнoсти вoздуха измеряются на высoте 2 м в тени вдали oт зданий и деревьев.
Скoрoсть ветра измеряется на высoте 10 м (на урoвне рoста челoвека скoрoсть ветра ниже в 1.5-2 раза). Если метеoстанция нахoдится в гoрoде или в лесу, тo скoрoсть ветра занижена на 2-4 м/с пo сравнению с oткрытым местoм. Скoрoсть ветра над акватoриями крупных рек и oзёр, а также на вершинах хoлмoв на 2-5 м/с выше, чем в oбычных услoвиях.
Атмoсфернoе давление в разных тoчках местнoсти мoжет значительнo oтличаться oт давления на метеoстанции, в зависимoсти oт услoвий рельефа (при пoдъёме на 10 м давление пoнижается примернo на 1 мм рт.ст.).